Volver al catálogo

COSMOS 2449

GLONASS

ActivoNavegaciónMEO
NORAD 33467·PAYLOAD·🇷🇺 Russia

Lanzado Dec 25, 2008 desde Baikonur Cosmodrome

Loading…

Próximos Pases (próximas 24 horas)

TLE

ActualizadoSource: Space-Track

Época: Sep 10, 2026, 07:02 UTC

1 33467U 08067B   26253.29307247  .00000011  00000-0  00000-0 0  9998
2 33467  64.8656  66.3346 0032943 235.4620 124.2631  2.13096687137777

Sigue COSMOS 2449 en tiempo real con AllMySat

Download on the App Store